QPF
0.01 0.00 0.00 0.00 0.00 0.00 0.00 0.00 0.00 0.00 0.00 0.00 0.00 0.00 0.00 0.01 0.01 0.00 0.01 0.01 0.00 0.00
0.00 0.00 0.00 0.00 0.00 0.00 0.00 0.00 0.00 0.00 0.00 0.00 0.00 0.00 0.01 0.02 0.00 0.00 0.01 0.01 0.00 0.02
0.00 0.00 0.00 0.00 0.00 0.00 0.01 0.01 0.07 0.01 0.01 0.00 0.00 0.04 0.03 0.00 0.00 0.00 0.00 0.01 0.06 0.03
0.00 0.00 0.00 0.00 0.00 0.00 0.00 0.01 0.03 0.01 0.01 0.02 0.00 0.01 0.07 0.00 0.00 0.00 0.01 0.01 0.02 0.01
0.00 0.00 0.00 0.00 0.00 0.00 0.00 0.00 0.00 0.00 0.01 0.06 0.01 0.02 0.10 0.05 0.00 0.03 0.05 0.02 0.01 0.00
0.00 0.00 0.00 0.00 0.00 0.00 0.00 0.00 0.00 0.00 0.02 0.01 0.00 0.00 0.01 0.08 0.04 0.00 0.01 0.01 0.08 0.08
0.00 0.00 0.00 0.00 0.00 0.00 0.00 0.00 0.00 0.00 0.00 0.00 0.00 0.00 0.00 0.04 0.01 0.00 0.01 0.03 0.11 0.05
0.00 0.00 0.00 0.00 0.00 0.00 0.00 0.00 0.00 0.00 0.00 0.00 0.00 0.00 0.00 0.00 0.01 0.04 0.05 0.05 0.04 0.04
0.00 0.00 0.00 0.00 0.01 0.02 0.01 0.00 0.00 0.00 0.00 0.00 0.00 0.00 0.00 0.00 0.00 0.00 0.05 0.07 0.03 0.04
0.02 0.01 0.00 0.00 0.00 0.01 0.02 0.00 0.00 0.00 0.00 0.00 0.00 0.00 0.00 0.00 0.00 0.00 0.00 0.03 0.02 0.07
0.08 0.05 0.03 0.02 0.01 0.03 0.06 0.05 0.04 0.02 0.02 0.02 0.01 0.00 0.00 0.00 0.01 0.01 0.02 0.05 0.03 0.03
0.11 0.10 0.08 0.05 0.06 0.09 0.09 0.13 0.08 0.09 0.09 0.07 0.05 0.03 0.00 0.00 0.00 0.02 0.02 0.01 0.00 0.00
0.04 0.04 0.07 0.09 0.11 0.15 0.17 0.15 0.10 0.10 0.08 0.08 0.08 0.05 0.00 0.00 0.00 0.01 0.00 0.00 0.00 0.00
0.01 0.01 0.00 0.01 0.04 0.13 0.17 0.12 0.05 0.05 0.08 0.06 0.04 0.03 0.02 0.01 0.00 0.00 0.00 0.00 0.00 0.00
MSLP
1014.67 1014.90 1015.15 1014.97 1014.71 1014.52 1014.54 1014.28 1015.02 1015.54 1015.66 1015.96 1016.09 1016.22 1016.19 1016.41 1016.31 1016.31 1016.45 1016.64 1016.43 1016.00
1014.26 1014.61 1014.42 1014.42 1014.62 1014.64 1014.61 1014.48 1014.67 1015.00 1015.46 1015.51 1015.74 1015.93 1016.11 1016.14 1016.50 1016.38 1016.56 1016.61 1016.27 1016.34
1013.72 1014.19 1014.43 1014.40 1014.38 1014.41 1014.79 1014.58 1015.19 1014.89 1015.19 1015.43 1015.63 1015.76 1016.26 1015.84 1016.06 1016.37 1016.34 1015.84 1016.22 1016.39
1012.85 1013.35 1013.94 1014.13 1014.34 1014.70 1014.53 1014.66 1014.93 1015.36 1015.41 1015.60 1015.52 1015.78 1016.13 1016.08 1016.03 1015.96 1016.16 1016.02 1015.99 1016.01
1012.06 1012.54 1012.86 1013.49 1013.68 1014.06 1014.39 1014.56 1014.77 1015.10 1015.22 1015.24 1015.40 1015.23 1015.85 1015.84 1015.46 1015.46 1015.82 1016.00 1015.73 1015.53
1011.30 1011.80 1012.10 1012.46 1013.11 1013.36 1013.81 1014.16 1014.22 1014.49 1014.76 1015.22 1015.19 1015.27 1015.50 1015.79 1015.91 1015.51 1015.37 1015.44 1015.78 1015.76
1010.60 1010.79 1011.25 1011.76 1012.33 1012.85 1013.21 1013.58 1013.80 1013.93 1014.12 1014.50 1014.72 1014.80 1015.00 1015.12 1015.39 1015.23 1015.11 1015.37 1015.55 1015.69
1009.95 1010.48 1010.73 1011.03 1011.55 1012.16 1012.55 1012.97 1013.30 1013.47 1013.65 1013.92 1014.12 1014.22 1014.58 1014.75 1014.89 1014.94 1015.08 1015.07 1015.14 1015.41
1009.78 1010.27 1010.61 1010.78 1011.14 1011.54 1012.06 1012.35 1012.72 1012.91 1013.07 1013.32 1013.55 1013.49 1013.95 1014.30 1014.38 1014.46 1014.61 1015.02 1015.05 1014.82
1009.94 1010.01 1010.32 1010.60 1010.83 1011.12 1011.44 1011.66 1011.96 1012.26 1012.53 1012.73 1013.06 1013.46 1013.70 1014.20 1014.40 1014.29 1014.22 1014.64 1014.71 1014.76
1010.15 1010.17 1010.20 1010.33 1010.56 1010.83 1011.26 1011.25 1011.40 1011.58 1011.97 1012.46 1012.71 1013.30 1013.66 1014.01 1014.25 1013.97 1013.99 1014.46 1014.75 1015.12
1010.49 1010.51 1010.44 1010.23 1010.20 1010.48 1010.79 1011.05 1011.15 1011.33 1011.77 1012.19 1012.62 1013.54 1013.64 1013.86 1013.84 1013.67 1014.21 1014.72 1015.36 1015.31
1010.68 1010.69 1010.62 1010.60 1010.43 1010.51 1010.66 1010.76 1011.13 1011.26 1011.51 1011.81 1012.34 1013.62 1013.91 1014.01 1013.10 1013.92 1014.50 1015.20 1015.86 1016.09
1011.17 1010.99 1010.62 1010.66 1010.67 1010.65 1010.76 1011.06 1011.32 1011.78 1012.20 1012.38 1012.70 1013.34 1013.80 1014.08 1013.76 1013.69 1014.66 1015.04 1015.13 1015.94
Thickness
5772 5772 5772 5776 5780 5784 5786 5790 5786 5781 5780 5778 5778 5779 5781 5781 5783 5784 5782 5781 5783 5787
5774 5773 5776 5780 5781 5784 5787 5788 5789 5786 5782 5782 5781 5781 5782 5783 5780 5783 5781 5781 5785 5784
5775 5775 5776 5779 5780 5783 5782 5787 5787 5786 5784 5783 5783 5783 5780 5785 5784 5781 5783 5789 5785 5784
5780 5779 5778 5779 5781 5779 5784 5784 5783 5781 5781 5780 5782 5782 5780 5782 5783 5784 5783 5786 5786 5785
5785 5784 5783 5780 5783 5783 5782 5783 5783 5781 5781 5783 5782 5786 5782 5782 5787 5787 5784 5784 5787 5788
5787 5786 5785 5785 5783 5785 5784 5783 5785 5784 5782 5780 5783 5784 5784 5781 5782 5786 5787 5788 5783 5785
5790 5791 5790 5789 5787 5785 5785 5785 5785 5786 5786 5784 5784 5785 5784 5784 5782 5785 5787 5786 5785 5784
5791 5791 5791 5791 5790 5788 5787 5785 5785 5786 5787 5786 5786 5786 5783 5783 5783 5782 5782 5785 5786 5784
5788 5786 5786 5788 5788 5787 5786 5786 5785 5784 5785 5786 5787 5790 5785 5783 5782 5782 5781 5778 5780 5785
5781 5782 5783 5784 5784 5784 5784 5786 5785 5785 5784 5784 5786 5784 5782 5777 5778 5778 5780 5777 5778 5778
5771 5774 5777 5779 5779 5781 5780 5782 5782 5783 5783 5781 5783 5777 5774 5774 5775 5776 5777 5774 5773 5769
5760 5762 5767 5771 5774 5775 5775 5776 5778 5779 5777 5776 5777 5768 5769 5769 5771 5772 5767 5766 5760 5763
5749 5753 5756 5759 5763 5767 5768 5770 5771 5772 5773 5773 5772 5760 5759 5760 5770 5761 5757 5753 5748 5745
5734 5740 5747 5750 5754 5756 5757 5758 5759 5758 5758 5760 5761 5756 5751 5749 5756 5755 5746 5745 5746 5740